NIEUW!!! Volg onze weer- en natuurfoto's op Instagram @ weerstationmaaseik.be

WS Maaseik 1 Meer informatie WS Maaseik 1


WS Maaseik 2 Meer informatie WS Maaseik 2


Regen radar Meer informatie rain snow radar


Bezoek onze andere website:

Vorige versie
weerstation Maaseik


Bezoek ook eens deze sites:

Weerstation Geleen



Het weer levert geen direct gevaar op.    Er zijn geen waarschuwingen afgegeven.

15 daagse weersverwachting Luzern (CH)

  • Overzicht
  • Per uur
  • 15 dagen
  • Extra
  • Vergelijk
  • Kaarten
  • Dagkaart
  • Meer »
  • Info
  • Statistieken
  • Directe link
    Temp 6h Neerslag Wind  
 07:13     19:27    Daglengte: 12:14 Vandaag
20:00
19°
 
1
 07:14     19:25    Daglengte: 12:11 Morgen
02:00
16°
 
1
08:00
16°
1.2 mm
1
14:00
21°
0.7 mm
1
20:00
19°
2.2 mm
1
 07:16     19:23    Daglengte: 12:07 Dinsdag 22 Sep
02:00
17°
0.5 mm
1
08:00
15°
1.9 mm
1
14:00
20°
3.0 mm
1
warningclass
20:00
17°
12.6 mm
1
 07:17     19:21    Daglengte: 12:04 Woensdag 23 Sep
02:00
16°
8.6 mm
1
08:00
15°
14.1 mm
1
Locatie info
Region: Luzern-Stadt
Latitude: 47.0495°N
Longitude: 8.3044°E
437 masl
Postcode: 6003
Temp/Neerslag /Baro Onweer/Dauwpunt
    Temp Baro 1h Neerslag Dauwpunt Wind UV Bewolking  
 07:13     19:27    Daglengte: 12:14 Vandaag
16:00
22°
1014.0 hPa   16.6°
1
Windvlaag: -0.4 m/s
40%
17:00
22°
1014.0 hPa
23%
16.7°
1
Windvlaag: -0 m/s
52%
18:00
21°
1014.1 hPa
32%
16.7°
1
Windvlaag: -0.1 m/s
52%
19:00
20°
1014.7 hPa
72%
16.4°
1
Windvlaag: 1.1 m/s
56%
20:00
19°
1015.0 hPa
70%
16.1°
1
Windvlaag: 0.9 m/s
51%
21:00
19°
1015.3 hPa
66%
15.5°
1
Windvlaag: 0.6 m/s
32%
22:00
18°
1015.5 hPa
67%
15.1°
1
Windvlaag: 0.6 m/s
20%
23:00
18°
1015.4 hPa
65%
14.9°
1
Windvlaag: 0.6 m/s
16%
 07:14     19:25    Daglengte: 12:11 Morgen
00:00
17°
1015.5 hPa
61%
14.4°
1
Windvlaag: 0.9 m/s
30%
01:00
17°
1015.5 hPa
59%
14.0°
1
Windvlaag: 1 m/s
32%
02:00
16°
1015.7 hPa
66%
14.1°
1
Windvlaag: 1 m/s
32%
03:00
16°
1015.7 hPa 0.4 mm
67%
13.9°
1
Windvlaag: 1 m/s
40%
04:00
16°
1015.6 hPa 0.4 mm
68%
14.0°
1
Windvlaag: 0.9 m/s
36%
05:00
16°
1015.4 hPa 0.4 mm
68%
14.3°
1
Windvlaag: 0.9 m/s
31% warningclass
06:00
16°
1015.4 hPa
56%
14.6°
1
Windvlaag: 0.8 m/s
25%
07:00
16°
1015.6 hPa
18%
14.4°
1
Windvlaag: 0.8 m/s
25%
08:00
16°
1016.0 hPa
56%
14.3°
1
Windvlaag: 0.6 m/s
29%
09:00
17°
1016.1 hPa
60%
15.0°
1
Windvlaag: 0.6 m/s
34%
10:00
18°
1016.2 hPa
58%
15.7°
1
Windvlaag: 0.3 m/s
36%
11:00
19°
1016.2 hPa
15%
16.6°
1
Windvlaag: -0.4 m/s
47%
12:00
20°
1016.0 hPa 0.2 mm
21%
17.0°
1
Windvlaag: -1 m/s
46%
13:00
21°
1015.5 hPa 0.2 mm
23%
16.6°
1
Windvlaag: -1.2 m/s
45%
14:00
21°
1015.2 hPa 0.3 mm
25%
16.4°
1
Windvlaag: -1.4 m/s
29%
15:00
22°
1014.9 hPa 0.7 mm
67%
16.6°
1
Windvlaag: -1.3 m/s
43%
16:00
21°
1014.8 hPa 1.5 mm
35%
16.4°
1
Windvlaag: -0.7 m/s
46%
17:00
21°
1014.5 hPa
76%
16.1°
1
Windvlaag: 0 m/s
47%
18:00
21°
1014.6 hPa
31%
15.9°
1
Windvlaag: 0.4 m/s
34%
19:00
20°
1014.7 hPa
27%
15.4°
1
Windvlaag: 0.6 m/s
35%
20:00
19°
1015.0 hPa
23%
15.3°
1
Windvlaag: 1.1 m/s
48%
21:00
19°
1015.2 hPa
18%
15.1°
1
Windvlaag: 1 m/s
41%
22:00
18°
1015.1 hPa
22%
15.3°
1
Windvlaag: 0.9 m/s
26%
23:00
18°
1015.0 hPa
21%
15.1°
1
Windvlaag: 0.7 m/s
25%
 07:16     19:23    Daglengte: 12:07 Dinsdag 22 Sep
00:00
17°
1014.9 hPa
23%
15.2°
1
Windvlaag: 0.8 m/s
14%
01:00
17°
1014.8 hPa
70%
15.3°
1
Windvlaag: 0.9 m/s
18%
02:00
17°
1014.7 hPa 0.5 mm
74%
15.1°
1
Windvlaag: 0.9 m/s
22%
03:00
15°
1014.5 hPa 0.6 mm
69%
14.0°
1
Windvlaag: 0.8 m/s
44%
04:00
15°
1014.4 hPa
70%
13.6°
1
Windvlaag: 0.9 m/s
39% warningclass
05:00
15°
1014.2 hPa 0.4 mm
70%
13.1°
2
Windvlaag: 0.8 m/s
52%
06:00
15°
1014.2 hPa 0.3 mm
66%
12.8°
2
Windvlaag: 0.9 m/s
35%
07:00
15°
1014.2 hPa 0.2 mm
60%
12.5°
1
Windvlaag: 0.9 m/s
36%
08:00
15°
1014.3 hPa 0.3 mm
58%
13.2°
1
Windvlaag: 0.8 m/s
54%
09:00
17°
1014.3 hPa 0.3 mm
19%
13.6°
1
Windvlaag: 0.8 m/s
42%
10:00
19°
1014.2 hPa 0.5 mm
17%
13.7°
1
Windvlaag: 0.6 m/s
36%
11:00
19°
1014.2 hPa 1.0 mm
27%
13.9°
0
Windvlaag: 0.4 m/s
81%
12:00
20°
1013.7 hPa 0.8 mm
30%
14.3°
1
Windvlaag: 0.4 m/s
80%
13:00
20°
1013.2 hPa
47%
14.6°
1
Windvlaag: -0.5 m/s
83%
14:00
20°
1012.5 hPa 0.4 mm
54%
14.7°
1
Windvlaag: -0.5 m/s
78% warningclass
15:00
20°
1011.9 hPa
54%
14.6°
1
Windvlaag: -0.7 m/s
84%
16:00
20°
1011.2 hPa 0.9 mm
97%
14.6°
1
Windvlaag: -0.8 m/s
81% warningclass
17:00
20°
1011.0 hPa 2.7 mm
91%
15.0°
1
Windvlaag: -0.2 m/s
89%
18:00
19°
1010.7 hPa 2.5 mm
42%
15.0°
1
Windvlaag: 0.7 m/s
89%
19:00
18°
1010.7 hPa 3.0 mm
93%
15.7°
1
Windvlaag: 1.1 m/s
92%
20:00
17°
1011.1 hPa 3.4 mm
100%
15.2°
1
Windvlaag: 1.6 m/s
94%
21:00
17°
1011.3 hPa 3.5 mm
99%
14.6°
1
Windvlaag: 0.8 m/s
94%
22:00
16°
1011.2 hPa 2.5 mm
100%
14.3°
1
Windvlaag: 0.5 m/s
93%
23:00
16°
1011.0 hPa
100%
13.3°
1
Windvlaag: 1.1 m/s
88%
 07:17     19:21    Daglengte: 12:04 Woensdag 23 Sep
00:00
16°
1010.8 hPa
100%
12.7°
1
Windvlaag: 0.9 m/s
85%
01:00
16°
1010.8 hPa
100%
12.9°
1
Windvlaag: 1 m/s
86%
02:00
16°
1010.7 hPa 2.6 mm
100%
13.0°
1
Windvlaag: 1.2 m/s
82%
03:00
16°
1010.8 hPa 2.8 mm
98%
12.7°
1
Windvlaag: 1.4 m/s
88%
04:00
16°
1010.7 hPa 2.1 mm
100%
13.5°
1
Windvlaag: 1.5 m/s
87%
05:00
16°
1010.5 hPa 2.1 mm
100%
13.4°
1
Windvlaag: 1.5 m/s
87%
06:00
16°
1010.5 hPa 2.3 mm
100%
13.2°
1
Windvlaag: 1.5 m/s
93%
07:00
15°
1010.6 hPa 2.4 mm
100%
13.4°
1
Windvlaag: 1.3 m/s
93%
08:00
15°
1010.7 hPa 2.3 mm
99%
13.4°
1
Windvlaag: 0.8 m/s
90%
09:00
16°
1010.3 hPa 4.2 mm
100%
13.8°
1
Windvlaag: 6.8 m/s
89%
10:00
17°
1010.1 hPa
100%
14.2°
1
Windvlaag: 5.9 m/s
80%
11:00
17°
1010.0 hPa
100%
14.5°
1
Windvlaag: 5.1 m/s
76%
12:00
18°
1009.7 hPa 4.2 mm
100%
14.8°
1
Windvlaag: 4.6 m/s
71%
13:00
19°
1009.5 hPa 4.2 mm
100%
15.1°
1
Windvlaag: 4.8 m/s
78%
14:00
19°
1009.2 hPa 4.4 mm
100%
15.4°
1
Windvlaag: 0.6 m/s
74%
15:00
19°
1009.5 hPa   15.4°
1
Windvlaag: 0 m/s
68%
Temp/Neerslag /Baro Onweer/Dauwpunt
    Temp Baro Neerslag Dauwpunt Wind Bewolking  
 07:13     19:27    Daglengte: 12:14 Vandaag
17:00
22°
1014.0 hPa   16.7°
1
52%
20:00
19°
1015.0 hPa   16.1°
1
51%
23:00
18°
1015.4 hPa   14.9°
1
16%
 07:14     19:25    Daglengte: 12:11 Morgen
02:00
16°
1015.7 hPa   14.1°
1
32%
05:00
16°
1015.4 hPa 1.2 mm 14.3°
1
31% warningclass
08:00
16°
1016.0 hPa   14.3°
1
29%
11:00
19°
1016.2 hPa   16.6°
1
47%
14:00
21°
1015.2 hPa 0.7 mm 16.4°
1
29%
17:00
21°
1014.5 hPa 2.2 mm 16.1°
1
47%
20:00
19°
1015.0 hPa   15.3°
1
48%
23:00
18°
1015.0 hPa   15.1°
1
25%
 07:16     19:23    Daglengte: 12:07 Dinsdag 22 Sep
02:00
17°
1014.7 hPa 0.5 mm 15.1°
1
22%
05:00
15°
1014.2 hPa 1.0 mm 13.1°
2
52%
08:00
15°
1014.3 hPa 0.8 mm 13.2°
1
54%
11:00
19°
1014.2 hPa 1.8 mm 13.9°
0
81%
14:00
20°
1012.5 hPa 1.2 mm 14.7°
1
78% warningclass
17:00
20°
1011.0 hPa 3.7 mm 15.0°
1
89%
20:00
17°
1011.1 hPa 8.9 mm 15.2°
1
94%
23:00
16°
1011.0 hPa 6.0 mm 13.3°
1
88%
 07:17     19:21    Daglengte: 12:04 Woensdag 23 Sep
02:00
16°
1010.7 hPa 2.6 mm 13.0°
1
82%
05:00
16°
1010.5 hPa 7.1 mm 13.4°
1
87%
08:00
15°
1010.7 hPa 7.0 mm 13.4°
1
90%
11:00
17°
1010.0 hPa 4.2 mm 14.5°
1
76%
14:00
19°
1009.2 hPa 12.8 mm 15.4°
1
74%
17:00
19°
1009.2 hPa 30.6 mm 15.1°
1
51%
20:00
18°
1009.1 hPa 31.2 mm 14.4°
0
40%
23:00
17°
1009.2 hPa 31.6 mm 14.2°
1
65%
 07:18     19:19    Daglengte: 12:01 Donderdag 24 Sep
02:00
16°
1009.2 hPa 31.6 mm 14.1°
1
90%
05:00
16°
1009.5 hPa 31.6 mm 13.8°
1
80%
08:00
15°
1009.8 hPa 31.6 mm 13.5°
0
71%
11:00
18°
1009.5 hPa 31.6 mm 14.3°
1
79%
14:00
19°
1009.1 hPa 32.3 mm 14.8°
2
87%
17:00
17°
1009.2 hPa 33.0 mm 13.9°
1
88%
20:00
15°
1009.3 hPa 34.3 mm 12.9°
0
89%
23:00
14°
1008.6 hPa 38.1 mm 12.1°
1
90%
 07:20     19:17    Daglengte: 11:57 Vrijdag 25 Sep
02:00
13°
1007.9 hPa 47.0 mm 11.2°
2
91%
05:00
12°
1006.8 hPa 51.1 mm 10.1°
1
90%
08:00
11°
1005.7 hPa 56.7 mm 9.0°
1
90%
11:00
Voelt als: 8.5°
1007.7 hPa 62.6 mm 7.5°
2
91%
14:00
Voelt als: 6.5°
1009.6 hPa 67.2 mm 6.0°
3
92%
17:00
Voelt als: 6.8°
1010.4 hPa 69.6 mm 5.0°
2
92%
20:00
Voelt als: 6.7°
1011.4 hPa 72.3 mm 3.7°
2
92%
23:00
Voelt als: 6.0°
1012.1 hPa 74.3 mm 4.1°
2
91%
 07:21     19:15    Daglengte: 11:54 Zaterdag 26 Sep
02:00
Voelt als: 5.5°
1012.7 hPa 76.3 mm 4.4°
2
90%
05:00
Voelt als: 5.2°
1012.7 hPa 77.0 mm 4.3°
2
90%
08:00
Voelt als: 5.0°
1012.9 hPa 80.6 mm 4.3°
2
90%
11:00
Voelt als: 6.7°
1012.1 hPa 83.4 mm 5.1°
2
69%
14:00
Voelt als: 8.6°
1011.3 hPa 84.1 mm 5.7°
2
49%
17:00
Voelt als: 8.0°
1011.2 hPa 84.5 mm 4.8°
2
61%
20:00
Voelt als: 7.2°
1011.3 hPa 84.7 mm 3.9°
1
74%
23:00
Voelt als: 5.8°
1012.1 hPa 84.7 mm 3.7°
1
80%
 07:22     19:13    Daglengte: 11:51 Zondag 27 Sep
02:00
Voelt als: 4.8°
1012.7 hPa 84.7 mm 3.6°
2
85%
05:00
Voelt als: 4.5°
1013.8 hPa 84.7 mm 3.8°
2
89%
08:00
Voelt als: 4.2°
1014.9 hPa 84.7 mm 4.1°
2
92%
11:00
Voelt als: 6.2°
1016.1 hPa 84.7 mm 5.2°
2
92%
14:00
Voelt als: 7.6°
1017.3 hPa 169.3 mm 6.1°
2
92%
20:00
Voelt als: 6.7°
1021.2 hPa 169.4 mm 5.3°
1
92%
 07:24     19:11    Daglengte: 11:47 Maandag 28 Sep
02:00
1021.6 hPa 169.4 mm 5.1°
1
89%
08:00
Voelt als: 7.2°
1021.5 hPa 169.4 mm 5.5°
1
65%
14:00
12°
1019.6 hPa 169.4 mm 6.5°
2
90%
20:00
12°
1019.3 hPa 169.6 mm 5.5°
1
20%
 07:25     19:09    Daglengte: 11:44 Dinsdag 29 Sep
02:00
Voelt als: 9.1°
1018.7 hPa 170.3 mm 7.3°
1
17%
08:00
Voelt als: 6.8°
1017.4 hPa 171.6 mm 6.9°
1
90%
14:00
15°
1014.8 hPa 174.1 mm 10.8°
1
1%
20:00
13°
1014.2 hPa 174.2 mm 11.5°
1
0%
 07:26     19:07    Daglengte: 11:41 Woensdag 30 Sep
02:00
10°
Voelt als: 9.2°
1017.6 hPa 174.3 mm 8.5°
1
1%
08:00
Voelt als: 7.4°
1016.5 hPa 174.3 mm 5.1°
2
0%
14:00
16°
1014.7 hPa 1.4 mm 10.7°
1
53%
20:00
10°
1015.1 hPa 2.4 mm 8.4°
1
55%
 07:28     19:05    Daglengte: 11:37 Donderdag 01 Okt
02:00
Voelt als: 7.6°
1016.0 hPa 1.3 mm 7.4°
2
52%
08:00
Voelt als: 7.1°
1016.1 hPa 0.8 mm 6.6°
2
46%
14:00
17°
1014.2 hPa 0.2 mm 9.8°
1
46%
20:00
Voelt als: 9.4°
1014.9 hPa 0.4 mm 7.9°
1
42%
 07:29     19:03    Daglengte: 11:34 Vrijdag 02 Okt
02:00
Voelt als: 8.1°
1015.6 hPa 0.7 mm 7.4°
2
35%
08:00
Voelt als: 7.7°
1015.4 hPa 1.0 mm 6.6°
2
38%
14:00
18°
1013.4 hPa 0.2 mm 10.2°
1
39%
20:00
11°
1014.3 hPa 0.9 mm 9.2°
1
50%
 07:30     19:01    Daglengte: 11:31 Zaterdag 03 Okt
02:00
10°
1014.9 hPa 1.1 mm 8.4°
2
49%
08:00
10°
1014.8 hPa 1.8 mm 8.2°
2
54%
14:00
18°
1013.5 hPa 1.4 mm 12.0°
1
59%
20:00
12°
1014.7 hPa 1.7 mm 10.1°
1
63%
 07:32     18:59    Daglengte: 11:27 Zondag 04 Okt
02:00
10°
1016.1 hPa 2.1 mm 9.0°
2
63%
08:00
10°
Voelt als: 9.2°
1016.6 hPa 2.1 mm 8.3°
2
53%
14:00
18°
1015.7 hPa 1.2 mm 11.8°
1
50%
20:00
12°
1017.1 hPa 1.3 mm 9.9°
1
51%
 07:33     18:57    Daglengte: 11:24 Maandag 05 Okt
02:00
10°
1018.1 hPa 0.7 mm 8.7°
2
46%
08:00
10°
Voelt als: 9.6°
1018.0 hPa 0.8 mm 8.0°
1
45%
14:00
18°
1016.8 hPa 2.5 mm 11.5°
1
48%
  CAPE Lifted Index Hail Supercell Tornado SRH 3km CL BTM PRES CL TOP PRES Swiss DWD icon SMHI TS
 07:13     19:27    Daglengte: 12:14 Vandaag
16:00 847 J/kg -3.3 K 0 % 0 % 0 % 0 m²/s² 0 0 -2.19 3
17:00 863 J/kg -3.7 K 0 % 0 % 0 % 0 m²/s² 0 0 -3.07 3
18:00 850 J/kg -3.3 K 0 % 0 % 0 % 0 m²/s² 0 0 -2.58 3
19:00 404 J/kg -3.4 K 0 % 0 % 0 % 0 m²/s² 0 0 -2.74 3
20:00 5 J/kg -2.4 K 0 % 0 % 0 % 0 m²/s² 0 0 -1.08 3
21:00 0 J/kg -2.4 K 0 % 0 % 0 % 0 m²/s² 0 0 -1.2 3
22:00 0 J/kg -2.4 K 0 % 0 % 0 % 0 m²/s² 0 0 -0.96 2
23:00 0 J/kg -1.9 K 0 % 0 % 0 % 0 m²/s² 0 0 -0.16 80
 07:14     19:25    Daglengte: 12:11 Morgen
00:00 0 J/kg -1.0 K 0 % 0 % 0 % 0 m²/s² 0 0 0.8 3
01:00 0 J/kg -0.3 K 0 % 0 % 0 % 0 m²/s² 0 0 1.56 3
02:00 0 J/kg 0.3 K 0 % 0 % 0 % 0 m²/s² 0 0 2.01 3
03:00 0 J/kg 0.5 K 0 % 0 % 0 % 0 m²/s² 0 0 1.97 80
04:00 0 J/kg 0.3 K 0 % 0 % 0 % 0 m²/s² 0 0 1.44 80
05:00 0 J/kg -0.1 K 0 % 0 % 0 % 0 m²/s² 0 0 0.74 95
06:00 0 J/kg 0.4 K 0 % 0 % 0 % 0 m²/s² 0 0 1.39 80
07:00 0 J/kg 0.3 K 0 % 0 % 0 % 0 m²/s² 0 0 1.68 3
08:00 0 J/kg 0.3 K 0 % 0 % 0 % 0 m²/s² 0 0 1.83 45
09:00 0 J/kg 0.5 K 0 % 0 % 0 % 0 m²/s² 0 0 1.88 45
10:00 3 J/kg 0.3 K 0 % 0 % 0 % 0 m²/s² 0 0 1.44 3
11:00 65 J/kg -0.6 K 0 % 0 % 0 % 0 m²/s² 0 0 0.36 3
12:00 206 J/kg -1.3 K 0 % 0 % 0 % 0 m²/s² 0 0 -0.19 3
13:00 327 J/kg -1.8 K 0 % 0 % 0 % 0 m²/s² 0 0 -0.39 2
14:00 425 J/kg -2.2 K 0 % 0 % 0 % 0 m²/s² 0 0 -0.61 2
15:00 529 J/kg -2.5 K 0 % 0 % 0 % 0 m²/s² 0 0 -1.69 3
16:00 430 J/kg -1.7 K 0 % 0 % 0 % 0 m²/s² 0 0 -0.8 3
17:00 394 J/kg -1.9 K 0 % 0 % 0 % 0 m²/s² 0 0 -1.36 3
18:00 318 J/kg -1.4 K 0 % 0 % 0 % 0 m²/s² 0 0 -0.86 3
19:00 239 J/kg -1.3 K 0 % 0 % 0 % 0 m²/s² 0 0 -0.43 3
20:00 96 J/kg -1.6 K 0 % 0 % 0 % 0 m²/s² 0 0 -0.85 3
21:00 0 J/kg -0.8 K 0 % 0 % 0 % 0 m²/s² 0 0 -0.71 3
22:00 0 J/kg -0.3 K 0 % 0 % 0 % 0 m²/s² 0 0 0.36 2
23:00 0 J/kg -0.4 K 0 % 0 % 0 % 0 m²/s² 0 0 0.47 2
 07:16     19:23    Daglengte: 12:07 Dinsdag 22 Sep
00:00 0 J/kg -0.3 K 0 % 0 % 0 % 0 m²/s² 0 0 0.51 2
01:00 0 J/kg 0.0 K 0 % 0 % 0 % 0 m²/s² 0 0 1.2 80
02:00 0 J/kg -0.1 K 0 % 0 % 0 % 0 m²/s² 0 0 1.22 80
03:00 0 J/kg 0.0 K 0 % 0 % 0 % 0 m²/s² 0 0 1.2 80
04:00 0 J/kg 0.1 K 0 % 0 % 0 % 0 m²/s² 0 0 1 95
05:00 0 J/kg 0.0 K 0 % 0 % 0 % 0 m²/s² 0 0 0.72 80
06:00 0 J/kg 0.1 K 0 % 0 % 0 % 0 m²/s² 0 0 0.49 45
07:00 0 J/kg 0.3 K 0 % 0 % 0 % 0 m²/s² 0 0 0.72 45
08:00 0 J/kg 0.6 K 0 % 0 % 0 % 0 m²/s² 0 0 1.08 3
09:00 0 J/kg 0.6 K 0 % 0 % 0 % 0 m²/s² 0 0 1.02 3
10:00 0 J/kg 1.0 K 0 % 0 % 0 % 0 m²/s² 0 0 1.66 3
11:00 44 J/kg -0.4 K 0 % 0 % 0 % 0 m²/s² 0 0 0.11 3
12:00 313 J/kg -1.6 K 0 % 0 % 0 % 0 m²/s² 0 0 -1.3 2
13:00 628 J/kg -2.6 K 0 % 0 % 0 % 0 m²/s² 0 0 -2.09 3
14:00 821 J/kg -3.2 K 0 % 0 % 0 % 0 m²/s² 0 0 -2.54 3
15:00 878 J/kg -3.2 K 0 % 0 % 0 % 0 m²/s² 0 0 -2.39 3
16:00 872 J/kg -3.2 K 0 % 0 % 0 % 0 m²/s² 0 0 -2.84 3
17:00 467 J/kg -2.1 K 0 % 0 % 0 % 0 m²/s² 0 0 -1.71 3
18:00 249 J/kg -2.2 K 0 % 0 % 0 % 0 m²/s² 0 0 -1.57 3
19:00 0 J/kg -1.5 K 0 % 0 % 0 % 0 m²/s² 0 0 -0.36 3
20:00 0 J/kg -1.1 K 0 % 0 % 0 % 0 m²/s² 0 0 -0.53 3
21:00 8 J/kg 0.3 K 0 % 0 % 0 % 0 m²/s² 0 0 1.2 61
22:00 22 J/kg -0.5 K 0 % 0 % 0 % 0 m²/s² 0 0 -0.02 3
23:00 0 J/kg -0.5 K 0 % 0 % 0 % 0 m²/s² 0 0 -0.08 3
 07:17     19:21    Daglengte: 12:04 Woensdag 23 Sep
00:00 0 J/kg 0.6 K 0 % 0 % 0 % 0 m²/s² 0 0 0.99 3
01:00 0 J/kg 1.2 K 0 % 0 % 0 % 0 m²/s² 0 0 1.68 3
02:00 0 J/kg 1.0 K 0 % 0 % 0 % 0 m²/s² 0 0 1.66 3
03:00 0 J/kg 0.9 K 0 % 0 % 0 % 0 m²/s² 0 0 1.47 3
04:00 0 J/kg 0.6 K 0 % 0 % 0 % 0 m²/s² 0 0 1.02 3
05:00 0 J/kg 0.3 K 0 % 0 % 0 % 0 m²/s² 0 0 0.78 3
06:00 0 J/kg 0.6 K 0 % 0 % 0 % 0 m²/s² 0 0 0.99 3
07:00 0 J/kg 0.5 K 0 % 0 % 0 % 0 m²/s² 0 0 0.8 61
08:00 0 J/kg 0.5 K 0 % 0 % 0 % 0 m²/s² 0 0 0.77 80
09:00 22 J/kg 0.3 K 0 % 0 % 0 % 0 m²/s² 0 0 0.63 3
10:00 104 J/kg 0.0 K 0 % 0 % 0 % 0 m²/s² 0 0 0.9 3
11:00 194 J/kg -0.4 K 0 % 0 % 0 % 0 m²/s² 0 0 0.8 3
12:00 234 J/kg -0.8 K 0 % 0 % 0 % 0 m²/s² 0 0 0.43 61
13:00 312 J/kg -0.8 K 0 % 0 % 0 % 0 m²/s² 0 0 0.73 61
14:00 460 J/kg -1.8 K 0 % 0 % 0 % 0 m²/s² 0 0 -0.75 61
15:00 0 J/kg 0.0 K 0 % 0 % 0 % 0 m²/s² 0 0 13.83
Temp Baro Wind Neerslag
  EWN Forecast EWN WRFDA DWD ICON FMI HIRLAM MET Norway GFS
 07:13     19:27    Daglengte: 12:14 Vandaag
17:00 21.6° 1014.0 hPa 0.7 m/s 0.0 mm 23.9° 1012.1 hPa 2.4 m/s 0.0 mm 22.1° 1012.9 hPa 0.5 m/s -2.0 mm 23.0° 1014.5 hPa 0.6 m/s 0.0 mm 21.0° 1014.2 hPa 0.4 m/s 22.9° 1013.4 hPa 1.4 m/s
20:00 18.7° 1015.0 hPa 1.5 m/s 0.0 mm 18.6° 1012.3 hPa 3.7 m/s 1.0 mm 19.6° 1013.9 hPa 1.4 m/s 0.1 mm 20.7° 1016.1 hPa 0.7 m/s 0.0 mm 18.3° 1015.2 hPa 1.7 m/s 17.7° 1014.6 hPa 0.8 m/s
23:00 17.7° 1015.4 hPa 1.4 m/s 0.0 mm 16.2° 1012.5 hPa 2.8 m/s 1.7 mm 16.9° 1014.8 hPa 0.6 m/s 0.5 mm 18.8° 1016.7 hPa 1.7 m/s 0.0 mm 18.6° 1015.5 hPa 1.2 m/s 15.8° 1015.8 hPa 1.0 m/s
 07:14     19:25    Daglengte: 12:11 Morgen
02:00 16.5° 1015.7 hPa 1.2 m/s 0.0 mm 15.0° 1012.6 hPa 2.9 m/s 1.7 mm 15.7° 1015.4 hPa 0.4 m/s 0.6 mm 17.1° 1016.8 hPa 2.2 m/s 0.0 mm 17.8° 1015.8 hPa 0.3 m/s 14.8° 1016.0 hPa 1.1 m/s
05:00 16.2° 1015.4 hPa 1.0 m/s 1.2 mm 14.7° 1013.2 hPa 2.9 m/s 1.7 mm 15.9° 1015.1 hPa 0.4 m/s 2.2 mm 16.3° 1016.6 hPa 1.8 m/s 0.0 mm 17.4° 1015.5 hPa 0.5 m/s 14.2° 1016.0 hPa 1.3 m/s
08:00 15.9° 1016.0 hPa 1.2 m/s 0.0 mm 15.7° 1013.4 hPa 2.0 m/s 1.7 mm 15.1° 1015.5 hPa 0.9 m/s 0.4 mm 16.3° 1017.2 hPa 1.3 m/s 0.0 mm 16.5° 1016.1 hPa 0.7 m/s 14.6° 1016.2 hPa 1.0 m/s
11:00 19.0° 1016.2 hPa 0.9 m/s 0.0 mm 19.9° 1013.6 hPa 1.3 m/s 1.7 mm 17.2° 1016.1 hPa 0.7 m/s 0.1 mm 19.8° 1016.0 hPa 1.0 m/s 0.0 mm 19.2° 1016.5 hPa 0.6 m/s 20.8° 1016.0 hPa 0.9 m/s
14:00 21.5° 1015.2 hPa 1.3 m/s 0.7 mm 22.8° 1012.8 hPa 1.4 m/s 1.7 mm 20.9° 1014.9 hPa 1.0 m/s 0.0 mm 22.3° 1015.4 hPa 1.8 m/s 0.0 mm 21.6° 1015.3 hPa 1.1 m/s 23.9° 1014.9 hPa 1.4 m/s
17:00 20.8° 1014.5 hPa 1.0 m/s 2.2 mm 21.8° 1012.7 hPa 2.1 m/s 1.8 mm 21.0° 1013.9 hPa 0.1 m/s 0.1 mm 22.8° 1014.5 hPa 1.3 m/s 0.0 mm 20.4° 1014.8 hPa 1.1 m/s 20.6° 1014.3 hPa 0.7 m/s
20:00 19.2° 1015.0 hPa 1.1 m/s 0.0 mm 18.5° 1012.3 hPa 3.3 m/s 1.9 mm 19.2° 1014.7 hPa 0.9 m/s 0.0 mm 20.5° 1015.6 hPa 0.3 m/s 0.0 mm 19.4° 1015.1 hPa 1.1 m/s 17.0° 1014.7 hPa 1.2 m/s
23:00 17.6° 1015.0 hPa 1.2 m/s 0.0 mm 16.2° 1012.4 hPa 2.1 m/s 1.9 mm 16.7° 1014.8 hPa 1.0 m/s 0.0 mm 18.8° 1016.0 hPa 0.8 m/s 0.0 mm 18.4° 1015.0 hPa 1.2 m/s 15.4° 1015.8 hPa 1.4 m/s
 07:16     19:23    Daglengte: 12:07 Dinsdag 22 Sep
02:00 16.9° 1014.7 hPa 1.2 m/s 0.5 mm 15.3° 1011.7 hPa 2.9 m/s 1.9 mm 15.4° 1014.7 hPa 0.6 m/s 1.4 mm 17.9° 1015.1 hPa 2.0 m/s 0.0 mm 17.5° 1014.8 hPa 0.9 m/s 14.6° 1015.4 hPa 1.6 m/s
05:00 14.8° 1014.2 hPa 1.6 m/s 1.0 mm 14.6° 1011.2 hPa 2.6 m/s 1.9 mm 14.4° 1014.5 hPa 0.4 m/s 2.8 mm 17.3° 1014.8 hPa 1.8 m/s 0.0 mm 14.1° 1014.2 hPa 1.5 m/s 14.2° 1014.5 hPa 1.7 m/s
08:00 15.4° 1014.3 hPa 1.4 m/s 0.8 mm 16.1° 1011.9 hPa 2.2 m/s 1.9 mm 14.6° 1014.3 hPa 0.6 m/s 0.5 mm 17.1° 1014.7 hPa 1.6 m/s 0.0 mm 15.3° 1014.4 hPa 1.4 m/s 14.6° 1014.6 hPa 1.5 m/s
11:00 18.9° 1014.2 hPa 0.4 m/s 1.8 mm 20.6° 1010.6 hPa 1.0 m/s 2.0 mm 17.9° 1014.0 hPa 0.7 m/s 0.0 mm 19.3° 1014.4 hPa 0.2 m/s 21.5° 1013.5 hPa 0.9 m/s
14:00 20.4° 1012.5 hPa 0.9 m/s 1.2 mm 22.7° 1009.3 hPa 1.4 m/s 2.0 mm 20.1° 1012.3 hPa 1.1 m/s 0.0 mm 20.7° 1012.6 hPa 0.4 m/s 21.4° 1012.5 hPa 1.5 m/s
17:00 19.5° 1011.0 hPa 0.9 m/s 3.7 mm 17.7° 1008.4 hPa 4.9 m/s 13.2 mm 19.9° 1010.6 hPa 0.7 m/s 0.0 mm 20.4° 1011.1 hPa 0.5 m/s 20.3° 1010.9 hPa 0.7 m/s
20:00 17.4° 1011.1 hPa 1.2 m/s 8.9 mm 17.0° 1007.8 hPa 1.1 m/s 35.7 mm 18.2° 1010.5 hPa 1.1 m/s 0.1 mm 17.5° 1011.2 hPa 1.4 m/s 16.0° 1011.2 hPa 2.3 m/s
23:00 16.5° 1011.0 hPa 0.9 m/s 6.0 mm 16.3° 1008.2 hPa 1.5 m/s 35.8 mm 16.2° 1010.8 hPa 0.9 m/s 0.2 mm 17.6° 1011.1 hPa 0.9 m/s 15.1° 1011.6 hPa 2.4 m/s
 07:17     19:21    Daglengte: 12:04 Woensdag 23 Sep
02:00 15.7° 1010.7 hPa 1.0 m/s 2.6 mm 14.0° 1007.6 hPa 2.2 m/s 36.2 mm 15.7° 1010.5 hPa 0.5 m/s 0.2 mm 17.2° 1010.9 hPa 1.0 m/s 15.3° 1011.2 hPa 1.2 m/s
05:00 15.6° 1010.5 hPa 1.1 m/s 7.1 mm 15.2° 1007.2 hPa 2.1 m/s 36.2 mm 16.0° 1010.0 hPa 0.3 m/s 0.3 mm 15.7° 1010.7 hPa 1.0 m/s 15.0° 1010.6 hPa 1.3 m/s
08:00 15.1° 1010.7 hPa 1.1 m/s 7.0 mm 15.3° 1008.2 hPa 1.9 m/s 36.6 mm 15.1° 1010.0 hPa 0.8 m/s 0.5 mm 15.2° 1010.9 hPa 1.2 m/s 14.4° 1011.1 hPa 0.8 m/s
11:00 17.3° 1010.0 hPa 1.2 m/s 4.2 mm 19.0° 1008.0 hPa 2.3 m/s 37.1 mm 16.8° 1010.1 hPa 0.1 m/s 0.2 mm 17.1° 1010.3 hPa 1.3 m/s 16.4° 1010.8 hPa 0.2 m/s
14:00 19.2° 1009.2 hPa 1.3 m/s 12.8 mm 21.4° 1006.9 hPa 2.3 m/s 37.4 mm 18.1° 1009.1 hPa 0.3 m/s 0.6 mm 19.1° 1009.7 hPa 1.4 m/s 19.9° 1009.5 hPa 1.0 m/s
17:00 18.7° 1009.2 hPa 0.7 m/s 30.6 mm 18.6° 1009.2 hPa 0.7 m/s 20.0° 1008.6 hPa 0.7 m/s 30.6 mm
20:00 18.1° 1009.1 hPa 0.4 m/s 31.2 mm 18.3° 1009.0 hPa 0.3 m/s 15.3° 1009.7 hPa 1.1 m/s 31.2 mm
23:00 17.1° 1009.2 hPa 0.7 m/s 31.6 mm 17.4° 1009.0 hPa 0.6 m/s 14.1° 1010.9 hPa 2.2 m/s 31.6 mm
 07:18     19:19    Daglengte: 12:01 Donderdag 24 Sep
02:00 16.2° 1009.2 hPa 1.0 m/s 31.6 mm 16.4° 1009.0 hPa 0.9 m/s 14.0° 1011.0 hPa 2.1 m/s 31.6 mm
05:00 15.7° 1009.5 hPa 0.7 m/s 31.6 mm 15.9° 1009.3 hPa 0.6 m/s 13.8° 1011.1 hPa 1.4 m/s 31.6 mm
08:00 15.2° 1009.8 hPa 0.4 m/s 31.6 mm 15.4° 1009.6 hPa 0.3 m/s 13.6° 1012.2 hPa 1.2 m/s 31.6 mm
11:00 17.6° 1009.5 hPa 1.2 m/s 31.6 mm 17.4° 1009.3 hPa 1.2 m/s 19.4° 1011.4 hPa 0.8 m/s 31.6 mm
14:00 19.5° 1009.1 hPa 2.2 m/s 32.3 mm 19.5° 1009.0 hPa 2.1 m/s 19.2° 1009.7 hPa 2.8 m/s 32.3 mm
17:00 17.1° 1009.2 hPa 1.2 m/s 33.0 mm 17.2° 1009.2 hPa 1.3 m/s 16.0° 1008.8 hPa 0.5 m/s 33.0 mm
20:00 14.8° 1009.3 hPa 0.5 m/s 34.3 mm 14.9° 1009.4 hPa 0.5 m/s 14.2° 1008.4 hPa 0.3 m/s 34.3 mm
23:00 14.1° 1008.6 hPa 1.0 m/s 38.1 mm 14.2° 1008.7 hPa 1.0 m/s 13.4° 1007.9 hPa 1.0 m/s 38.1 mm
 07:20     19:17    Daglengte: 11:57 Vrijdag 25 Sep
02:00 13.4° 1007.9 hPa 1.5 m/s 47.0 mm 13.4° 1008.0 hPa 1.5 m/s 12.9° 1007.4 hPa 1.9 m/s 47.0 mm
05:00 12.2° 1006.8 hPa 1.3 m/s 51.1 mm 12.2° 1006.9 hPa 1.4 m/s 11.9° 1005.8 hPa 0.4 m/s 51.1 mm
08:00 11.0° 1005.7 hPa 1.2 m/s 56.7 mm 11.0° 1005.7 hPa 1.3 m/s 10.5° 1006.2 hPa 0.7 m/s 56.7 mm
11:00 9.5° 1007.7 hPa 2.1 m/s 62.6 mm 9.6° 1007.8 hPa 2.0 m/s 8.9° 1007.5 hPa 3.6 m/s 62.6 mm
14:00 8.1° 1009.6 hPa 2.6 m/s 67.2 mm 8.1° 1009.8 hPa 2.7 m/s 8.5° 1006.8 hPa 1.7 m/s 67.2 mm
17:00 8.1° 1010.4 hPa 2.2 m/s 69.6 mm 7.9° 1010.8 hPa 2.2 m/s 9.4° 1006.3 hPa 1.5 m/s 69.6 mm
20:00 7.7° 1011.4 hPa 1.8 m/s 72.3 mm 7.8° 1011.7 hPa 1.8 m/s 6.2° 1008.6 hPa 1.5 m/s 72.3 mm
23:00 7.3° 1012.1 hPa 2.0 m/s 74.3 mm 7.4° 1012.4 hPa 2.0 m/s 5.6° 1009.6 hPa 2.7 m/s 74.3 mm
 07:21     19:15    Daglengte: 11:54 Zaterdag 26 Sep
02:00 7.0° 1012.7 hPa 2.1 m/s 76.3 mm 7.1° 1013.0 hPa 2.1 m/s 5.4° 1009.9 hPa 2.5 m/s 76.3 mm
05:00 6.7° 1012.7 hPa 2.2 m/s 77.0 mm 6.9° 1013.0 hPa 2.1 m/s 4.6° 1009.4 hPa 2.8 m/s 77.0 mm
08:00 6.5° 1012.9 hPa 2.2 m/s 80.6 mm 6.7° 1013.0 hPa 2.1 m/s 4.4° 1011.3 hPa 2.9 m/s 80.6 mm
11:00 7.9° 1012.1 hPa 2.0 m/s 83.4 mm 8.1° 1012.1 hPa 1.9 m/s 5.2° 1012.3 hPa 3.5 m/s 83.4 mm
14:00 9.4° 1011.3 hPa 1.9 m/s 84.1 mm 9.5° 1011.2 hPa 1.6 m/s 8.9° 1011.8 hPa 5.2 m/s 84.1 mm
17:00 8.6° 1011.2 hPa 1.5 m/s 84.5 mm 8.5° 1011.1 hPa 1.2 m/s 9.2° 1012.1 hPa 4.8 m/s 84.5 mm
20:00 7.4° 1011.3 hPa 1.1 m/s 84.7 mm 7.5° 1011.0 hPa 0.9 m/s 5.7° 1014.5 hPa 3.2 m/s 84.7 mm
23:00 6.6° 1012.1 hPa 1.4 m/s 84.7 mm 6.8° 1011.8 hPa 1.2 m/s 3.6° 1016.1 hPa 3.3 m/s 84.7 mm
 07:22     19:13    Daglengte: 11:51 Zondag 27 Sep
02:00 5.9° 1012.7 hPa 1.7 m/s 84.7 mm 6.2° 1012.5 hPa 1.6 m/s 2.9° 1015.3 hPa 2.9 m/s 84.7 mm
05:00 5.9° 1013.8 hPa 1.9 m/s 84.7 mm 6.1° 1013.8 hPa 1.8 m/s 3.1° 1013.8 hPa 2.5 m/s 84.7 mm
08:00 5.7° 1014.9 hPa 2.0 m/s 84.7 mm 6.0° 1015.0 hPa 2.0 m/s 2.7° 1013.6 hPa 2.3 m/s 84.7 mm
11:00 7.4° 1016.1 hPa 2.0 m/s 84.7 mm 7.1° 1016.5 hPa 2.0 m/s 10.7° 1010.9 hPa 1.3 m/s 84.7 mm
14:00 8.7° 1017.3 hPa 2.0 m/s 84.7 mm 8.2° 1018.1 hPa 2.1 m/s 14.0° 1009.1 hPa 1.1 m/s 84.7 mm
20:00 7.3° 1021.2 hPa 1.4 m/s 84.7 mm 7.4° 1022.1 hPa 1.4 m/s 6.5° 1010.9 hPa 1.8 m/s 84.7 mm
 07:24     19:11    Daglengte: 11:47 Maandag 28 Sep
02:00 7.0° 1021.6 hPa 0.9 m/s 84.7 mm 7.0° 1022.4 hPa 0.8 m/s 6.4° 1013.0 hPa 2.2 m/s 84.7 mm
08:00 7.2° 1021.5 hPa 0.9 m/s 84.7 mm 7.4° 1022.2 hPa 0.8 m/s 5.4° 1013.9 hPa 2.2 m/s 84.7 mm
14:00 12.3° 1019.6 hPa 1.6 m/s 84.7 mm 12.0° 1020.4 hPa 1.6 m/s 16.1° 1011.3 hPa 2.2 m/s 84.7 mm
20:00 11.5° 1019.3 hPa 0.6 m/s 84.9 mm 11.5° 1019.9 hPa 0.4 m/s 11.8° 1012.3 hPa 2.3 m/s 84.9 mm
 07:25     19:09    Daglengte: 11:44 Dinsdag 29 Sep
02:00 9.1° 1018.7 hPa 0.9 m/s 85.2 mm 8.9° 1019.3 hPa 0.8 m/s 11.3° 1011.6 hPa 2.5 m/s 85.2 mm
08:00 7.2° 1017.4 hPa 1.2 m/s 86.3 mm 6.7° 1017.7 hPa 1.1 m/s 12.1° 1014.0 hPa 1.8 m/s 86.3 mm
14:00 14.9° 1014.8 hPa 1.2 m/s 87.0 mm 15.0° 1014.8 hPa 1.2 m/s 13.8° 1014.4 hPa 1.8 m/s 87.0 mm
20:00 13.3° 1014.2 hPa 1.0 m/s 87.2 mm 13.4° 1013.9 hPa 1.0 m/s 12.3° 1017.0 hPa 0.8 m/s 87.1 mm
 07:26     19:07    Daglengte: 11:41 Woensdag 30 Sep
02:00 9.6° 1017.6 hPa 1.4 m/s 87.2 mm 9.6° 1017.6 hPa 1.4 m/s 87.2 mm
08:00 8.3° 1016.5 hPa 1.8 m/s 87.2 mm 8.3° 1016.5 hPa 1.8 m/s 87.2 mm
14:00 15.9° 1014.7 hPa 1.4 m/s 1.4 mm
20:00 9.8° 1015.1 hPa 1.2 m/s 2.4 mm
 07:28     19:05    Daglengte: 11:37 Donderdag 01 Okt
02:00 8.8° 1016.0 hPa 2.2 m/s 1.3 mm
08:00 8.1° 1016.1 hPa 1.9 m/s 0.8 mm
14:00 17.0° 1014.2 hPa 1.4 m/s 0.2 mm
20:00 9.4° 1014.9 hPa 0.9 m/s 0.4 mm
 07:29     19:03    Daglengte: 11:34 Vrijdag 02 Okt
02:00 9.1° 1015.6 hPa 2.1 m/s 0.7 mm
08:00 8.6° 1015.4 hPa 1.9 m/s 1.0 mm
14:00 18.2° 1013.4 hPa 1.0 m/s 0.2 mm
20:00 10.9° 1014.3 hPa 1.1 m/s 0.9 mm
 07:30     19:01    Daglengte: 11:31 Zaterdag 03 Okt
02:00 10.3° 1014.9 hPa 2.0 m/s 1.1 mm
08:00 10.1° 1014.8 hPa 1.5 m/s 1.8 mm
14:00 17.6° 1013.5 hPa 0.6 m/s 1.4 mm
20:00 11.5° 1014.7 hPa 0.6 m/s 1.7 mm
 07:32     18:59    Daglengte: 11:27 Zondag 04 Okt
02:00 10.4° 1016.1 hPa 1.6 m/s 2.1 mm
08:00 9.7° 1016.6 hPa 1.7 m/s 2.1 mm
14:00 17.9° 1015.7 hPa 0.5 m/s 1.2 mm
20:00 11.7° 1017.1 hPa 0.6 m/s 1.3 mm
 07:33     18:57    Daglengte: 11:24 Maandag 05 Okt
02:00 10.4° 1018.1 hPa 1.6 m/s 0.7 mm
08:00 9.9° 1018.0 hPa 1.4 m/s 0.8 mm
14:00 17.6° 1016.8 hPa 0.8 m/s 2.5 mm
FMI Hirlam - 7.5 km EWN WRFDA - 12 km DWD ICON - 7 km GFS - 25 km Basiskaart






























































Updatetijd (Europe/Brussels) Resolutie Lengte Stap
FMI Hirlam 13:45, 19:45, 01:45, 07:45 7.5 km 49h 1h
EWN WRFDA 10:15, 16:15, 22:15, 04:15 12 km 73h 1h
DWD ICON 11:45, 17:45, 23:45, 05:45 7 km 75h 1h
GFS 14:00, 20:00, 02:00, 08:00 25 km 237h 3h
30+ mm
25-30 mm
20-25 mm
15-20 mm
10-15 mm
6-10 mm
4-6 mm
2-4 mm
1-2 mm
0.5-1 mm
0.2-0.5 mm
0.1-0.2 mm
30+ mm
25-30 mm
20-25 mm
15-20 mm
10-15 mm
6-10 mm
4-6 mm
2-4 mm
1-2 mm
0.5-1 mm
0.2-0.5 mm
0.1-0.2 mm
Sneeuwval
Natte sneeuw
Hagel
Vorst
30+ mm
25-30 mm
20-25 mm
15-20 mm
10-15 mm
6-10 mm
4-6 mm
2-4 mm
1-2 mm
0.5-1 mm
0.2-0.5 mm
0.1-0.2 mm
Sneeuwval
Natte sneeuw
Hagel
Vorst
Onweer
50 mm
40 mm
30 mm
26 mm
22 mm
18 mm
14 mm
10 mm
9 mm
8 mm
7 mm
6 mm
5 mm
4.5 mm
4 mm
3.5 mm
3 mm
2.5 mm
2 mm
1.5 mm
1 mm
0.8 mm
0.6 mm
0.4 mm
0.2 mm
0.05 mm
35°
30°
25°
20°
15°
10°
-5°
-10°
-15°
-20°
-25°
-30°
-35°
33> m/s
29 m/s
25 m/s
21 m/s
17 m/s
14 m/s
11 m/s
8 m/s
5 m/s
3 m/s
0 m/s
2600 J/kg
2400 J/kg
2200 J/kg
2000 J/kg
1800 J/kg
1600 J/kg
1400 J/kg
1200 J/kg
1000 J/kg
800 J/kg
600 J/kg
400 J/kg
200 J/kg
70 dBZ
65 dBZ
60 dBZ
55 dBZ
50 dBZ
45 dBZ
40 dBZ
35 dBZ
30 dBZ
25 dBZ
20 dBZ
15 dBZ
10 dBZ
5 dBZ
-1 K
-2 K
-3 K
-4 K
-5 K
-6 K
-7 K
-8 K
-9 K
950 m²/s²
900 m²/s²
850 m²/s²
800 m²/s²
750 m²/s²
700 m²/s²
650 m²/s²
600 m²/s²
550 m²/s²
500 m²/s²
450 m²/s²
400 m²/s²
350 m²/s²
300 m²/s²
250 m²/s²
200 m²/s²
150 m²/s²
100 m²/s²
46 m/s
44 m/s
42 m/s
40 m/s
38 m/s
36 m/s
34 m/s
32 m/s
30 m/s
28 m/s
26 m/s
24 m/s
22 m/s
20 m/s
16 m/s
12 m/s
8 m/s
4 m/s
30 m/s
28 m/s
26 m/s
24 m/s
22 m/s
20 m/s
18 m/s
16 m/s
14 m/s
12 m/s
10 m/s
8 m/s
6 m/s
4 m/s
2 m/s
3.0
2.8
2.6
2.4
2.2
2.0
1.8
1.6
1.4
1.2
1.0
0.8
0.6
0.4
0.2
15
14
13
12
11
10
9
8
7
6
5
4
3
2
1
90%
80%
70%
60%
50%
40%
30%
20%
10%
42
40
38
36
34
32
30
28
26
24
22
20
18
16
14
12
90+ cm
80-90 cm
70-80 cm
60-70 cm
50-60 cm
40-50 cm
30-40 cm
20-30 cm
10-20 cm
1-10 cm
Sneeuwval
Natte sneeuw
Regen
>120 mm
115 mm
110 mm
105 mm
100 mm
95 mm
90 mm
85 mm
80 mm
75 mm
70 mm
65 mm
60 mm
55 mm
50 mm
45 mm
45 mm
40 mm
35 mm
30 mm
25 mm
20 mm
15 mm
10 mm
5 mm
0.1 mm
960 hPa
880 hPa
800 hPa
720 hPa
640 hPa
560 hPa
584 gpdm
568 gpdm
552 gpdm
536 gpdm
520 gpdm
504 gpdm
488 gpdm
Extreem zwaar Noodweer Kans op onweer
15% 15% 5% 50% 15%

Dag




Kaart






35°
30°
25°
20°
15°
10°
-5°
-10°
-15°
-20°
-25°
-30°
-35°
33> m/s
29 m/s
25 m/s
21 m/s